YMMLYLHI

Guest
Details From YMML - Melbourne Intl
To YLHI - Lord Howe Island
Flight Number -
Tags decoded
Created
Modified
Stats Distance 793 nm / 1,469 km
Max Altitude 0 ft / 0 m
Waypoints 2
Social Downloads 0
Likes 0
Share VATSIM

Download

Looking for another format? Having issues loading an existing format? Contact us
Advertisement - Login to hide

Notes

Requested: YMML YLHI

Route

YMML YLHI

ID Type Via Altitude (ft/m) Position (lat/lon) Dist (leg/tot) Name
O YMML APT - 0 / 0 -37.66530 / 144.83667 - / 0 nm Melbourne Intl
O YLHI APT - 0 / 0 -31.53840 / 159.07599 793 / 793 nm Lord Howe Island

Altitude Profile

Advertisement - Login to hide

Weather


0- 5 10 15 20 25 30 35+ Temperature / °C

Clouds and Precipitation
Forecast for 2020-04-04 00:00 UTC. Updated 26 minutes ago

Ground ~20,000 ft ~40,000 ft Winds

YMML

Details ICAO YMML (MEL)
Name Melbourne
Region Australia
Timezone Australia/Melbourne (UTC+11.0)
Stats Elevation 433 ft / 132 m (AMSL)
Location -37.665500° 144.837000°
Runways 2
Magnetic Variation 11.525° E

METAR

YMML 032200Z 27012KT 9999 SCT025 SCT060 13/10 Q0998

Decode

TAF

TAF YMML 031731Z 0318/0500 27012KT 9999 -SHRA SCT030 BKN040 BECMG 0322/0400 26018G28KT 9999 -SHRA SCT035 BECMG 0408/0410 31014KT 9999 SCT040 BECMG 0418/0420 33020G30KT 9999 BKN030 INTER 0403/0409 27030G40KT 5000 SHRA BKN020

Decode

Departure Runways

ID Width Length Bearing (true/mag) Surface Threshold Overrun Markings Lighting
09 148 ft / 45 m 7,513 ft / 2,290 m 94.00° / 82.47° ASPHALT 0 ft / 0 m 197 ft / 60 m UK-APP CENTERLINE EDGE THRESHOLD
16 155 ft / 47 m 12,012 ft / 3,661 m 171.60° / 160.08° ASPHALT 0 ft / 0 m 200 ft / 61 m UK-APP CENTERLINE EDGE THRESHOLD CALVERT-ILS TDZ
27 148 ft / 45 m 7,513 ft / 2,290 m 273.98° / 262.46° ASPHALT 0 ft / 0 m 174 ft / 53 m UK-APP CENTERLINE EDGE THRESHOLD CALVERT-ILS TDZ
34 155 ft / 47 m 12,012 ft / 3,661 m 351.60° / 340.07° ASPHALT 0 ft / 0 m 200 ft / 61 m UK-APP CENTERLINE EDGE THRESHOLD ODALS

YLHI

Details ICAO YLHI (LDH)
Name Lord Howe Island
Region Australia
Timezone Unknown
Stats Elevation 16 ft / 5 m (AMSL)
Location -31.538400° 159.076000°
Runways 1
Magnetic Variation 14.111° E

METAR

YLHI 032130Z AUTO 03016KT 9999 // SCT026 24/19 Q1012

Decode

TAF

TAF AMD YLHI 031659Z 0318/0418 02014KT 9999 SCT030 FM032100 36020KT 9999 -SHRA SCT025 INTER 0415/0418 4000 SHRA BKN010

Decode

Destination Runways

ID Width Length Bearing (true/mag) Surface Threshold Overrun Markings Lighting
10 98 ft / 30 m 2,902 ft / 885 m 114.47° / 100.36° ASPHALT 0 ft / 0 m 194 ft / 59 m APP
28 98 ft / 30 m 2,902 ft / 885 m 294.46° / 280.35° ASPHALT 328 ft / 100 m 200 ft / 61 m APP

Popular Alternatives